Wind_Speed
42 41 41 40 42 46 51 54 54 54 56 54 45 39 41 46 47 45 43 42 41 44 48 49 46 43 39 35 34 33 32 31 31 33 33 34 37 38 38 39 38 37
44 43 42 42 42 43 48 53 56 57 57 57 55 48 41 39 43 46 46 46 45 44 47 50 47 45 43 40 37 36 34 33 33 33 34 36 37 36 37 38 38 38
45 44 42 42 42 42 45 49 54 59 59 58 57 56 49 39 37 43 46 48 48 46 47 49 47 45 44 42 40 40 38 36 36 36 36 37 35 34 35 37 38 38
46 44 43 43 43 43 44 45 49 54 58 59 57 58 57 47 40 42 46 48 48 46 47 50 49 47 45 44 43 41 39 37 38 39 40 39 35 34 36 37 38 38
46 45 45 46 46 46 45 44 45 48 52 56 56 59 61 55 50 48 46 48 49 46 46 49 51 50 46 44 44 43 40 38 40 43 43 42 39 37 38 40 41 39
47 47 47 47 47 48 48 45 44 44 47 51 55 58 57 54 55 55 49 48 50 46 45 48 52 52 49 45 44 43 41 40 43 46 44 43 42 41 41 42 42 41
48 48 48 48 48 48 47 46 44 41 43 48 54 57 55 51 53 56 51 49 48 46 46 48 51 53 51 48 45 43 40 39 41 46 46 44 44 45 45 45 45 46
49 50 49 49 49 48 47 45 43 41 40 46 53 58 60 57 55 56 53 51 48 45 45 47 50 54 53 51 50 48 45 43 42 44 45 44 44 45 46 48 49 49
51 51 50 49 48 47 46 45 43 40 39 43 50 56 61 61 60 60 56 53 51 47 44 45 46 50 53 54 54 52 51 50 48 46 44 44 45 44 44 46 48 48
52 52 51 50 48 46 44 44 44 40 38 40 45 52 58 59 61 64 60 55 54 50 48 47 44 43 48 52 55 55 54 53 52 51 48 46 45 45 45 46 47 47
54 53 52 50 48 46 42 42 44 42 38 38 40 46 54 56 59 65 64 57 53 52 51 50 47 42 42 46 51 53 53 52 52 53 53 50 48 47 47 49 50 49
55 54 53 50 48 46 42 41 42 42 39 38 38 40 47 54 57 63 67 61 52 51 52 52 52 49 43 44 47 48 48 48 49 52 53 52 50 48 48 49 51 52
56 55 54 51 48 46 42 40 40 41 39 37 36 36 41 50 55 61 69 64 53 51 52 51 54 55 49 46 48 49 47 46 48 51 52 50 48 48 49 50 50 51
57 57 55 52 49 46 42 39 38 39 39 37 36 35 37 46 53 60 68 67 58 54 53 50 53 58 55 49 49 51 49 46 47 50 51 49 49 50 52 53 51 49
58 58 57 54 51 48 44 39 37 37 38 36 34 34 35 42 51 59 67 69 64 60 56 52 54 58 57 52 51 51 50 48 48 50 52 51 51 52 54 54 52 49
59 59 58 56 53 49 45 40 37 36 36 36 34 33 35 39 48 57 65 70 69 65 61 56 55 57 56 55 53 50 47 48 49 53 57 57 55 54 54 55 54 52
60 60 59 57 55 51 47 42 38 36 35 36 34 34 35 38 45 54 62 68 70 69 65 60 57 56 56 57 55 50 46 46 48 52 57 59 60 59 56 56 56 54
62 61 60 59 57 53 48 44 40 37 35 35 35 34 36 39 44 52 59 66 70 71 69 65 60 57 57 59 58 55 51 47 45 47 52 56 60 61 60 59 59 56
63 63 62 61 59 56 51 45 41 38 36 36 35 35 37 40 44 50 57 64 69 70 70 69 65 62 61 62 62 61 59 53 46 44 47 49 53 57 58 59 58 55
65 64 64 63 62 59 54 47 42 39 37 37 37 36 37 40 45 50 56 63 68 70 70 69 68 66 66 66 65 65 64 59 52 50 49 47 49 51 53 54 55 52
67 66 66 66 65 62 58 51 44 40 38 38 39 38 38 40 45 50 55 61 67 70 71 70 69 69 68 69 69 67 65 62 60 61 60 57 55 54 54 54 54 52
69 68 68 68 67 65 62 56 48 42 39 39 40 41 40 41 45 50 54 59 65 70 72 72 71 71 70 70 71 70 68 66 66 66 67 67 64 61 59 58 56 55
72 71 71 70 69 67 64 59 52 45 40 39 41 44 43 43 45 50 54 58 62 67 71 72 72 73 72 72 72 73 72 70 68 67 67 68 67 64 62 61 59 58
74 75 74 73 71 68 64 60 55 49 43 40 41 45 47 46 46 49 54 58 60 64 68 71 71 71 73 73 73 74 74 73 71 69 68 68 67 66 64 64 62 60
78 78 76 74 71 67 64 60 57 52 47 43 41 45 49 50 49 49 53 57 61 63 65 68 70 70 70 71 73 74 74 74 73 72 70 69 68 68 67 67 66 65
81 79 77 73 69 66 62 60 58 55 51 47 43 43 49 53 54 53 53 56 60 63 65 67 68 69 70 70 71 73 74 73 73 73 72 70 70 69 69 69 69 68
Wind_Direction
282 280 278 274 267 261 256 254 253 252 248 243 240 244 248 249 248 246 241 239 241 239 233 231 232 234 233 232 230 230 231 234 238 240 240 242 242 245 248 250 255 259
281 280 279 277 274 268 261 256 252 251 250 245 240 239 243 247 251 252 246 239 238 240 236 232 234 237 237 235 233 233 233 235 239 239 237 240 243 242 244 248 252 256
281 282 282 281 278 275 268 262 255 251 250 249 243 239 239 241 245 248 245 238 234 237 237 234 235 237 237 236 235 236 238 238 240 240 238 241 244 239 241 247 249 252
284 286 288 289 287 282 276 269 262 255 251 250 248 244 241 239 240 243 241 234 230 232 235 235 236 238 237 236 235 237 240 241 241 241 241 244 244 240 240 245 247 248
288 291 293 293 293 289 283 276 267 259 253 249 248 245 243 241 241 244 240 232 228 230 233 234 235 236 237 236 234 234 238 242 243 243 245 248 248 244 242 246 249 250
291 293 294 295 295 292 287 282 273 263 254 248 245 242 240 238 238 241 238 230 227 228 231 233 233 235 236 235 231 230 232 237 242 244 245 248 249 247 246 246 249 251
292 293 295 296 296 294 290 285 278 268 256 247 242 239 236 233 232 234 233 228 227 229 230 232 232 233 234 233 230 228 229 233 240 242 244 245 246 246 246 246 249 252
293 294 296 297 297 296 292 288 281 272 261 248 241 238 235 231 229 230 229 226 226 228 230 231 232 232 234 234 231 230 231 234 239 242 244 244 243 243 245 247 251 253
294 295 297 298 299 298 295 292 286 278 268 253 242 238 236 232 227 226 228 226 224 226 228 228 229 231 234 235 235 235 236 237 241 243 244 244 243 243 245 248 249 251
295 296 298 299 300 300 298 295 291 286 276 261 246 238 235 232 225 223 224 224 224 225 226 225 225 228 234 237 237 238 238 239 240 241 242 244 244 244 246 247 248 249
295 296 298 300 301 302 300 297 294 290 283 269 253 240 234 230 224 220 220 221 223 226 225 224 223 225 231 236 237 237 238 239 240 239 239 242 245 246 248 250 250 250
296 297 298 300 303 304 302 299 296 291 285 275 262 247 235 228 223 219 218 218 222 225 224 224 224 222 226 232 232 232 234 237 239 239 237 239 244 248 250 251 252 252
297 298 299 301 304 305 303 301 297 290 284 277 266 253 237 227 221 217 216 217 219 219 220 223 224 221 223 228 228 226 229 234 239 240 238 238 241 244 248 250 251 253
298 299 300 302 304 306 304 301 298 289 281 276 267 256 240 227 221 216 215 215 215 214 216 222 223 220 221 226 227 226 227 232 237 239 239 239 238 239 242 246 249 252
299 300 301 302 304 306 305 301 298 289 278 272 266 255 242 229 221 216 214 214 215 213 214 219 222 220 219 223 226 227 227 230 235 237 237 236 235 235 237 242 246 249
300 301 302 302 303 305 305 301 298 289 276 269 263 253 243 231 222 217 214 213 214 214 215 218 220 219 219 221 225 225 225 228 232 236 236 235 234 235 238 241 244 247
299 301 301 301 302 304 304 301 297 290 276 266 260 251 242 232 224 219 215 213 214 215 216 218 220 219 219 222 224 223 220 223 229 233 235 236 237 237 240 243 246 248
298 299 300 300 300 302 303 301 296 290 277 264 257 250 241 232 226 221 216 214 214 216 218 220 221 221 220 221 223 222 220 224 231 236 237 238 239 240 242 245 248 251
296 298 298 299 299 300 301 299 294 289 279 263 254 249 241 233 226 222 218 215 215 216 219 221 223 224 223 222 222 224 225 227 231 237 239 240 242 243 244 246 248 250
294 296 297 298 298 298 298 297 292 287 280 266 252 246 242 235 227 223 220 217 215 216 218 222 225 226 226 224 224 225 227 228 229 231 234 237 240 241 242 245 247 249
293 294 295 296 297 297 296 295 290 284 279 269 255 245 241 236 229 223 220 219 217 216 217 221 224 226 226 226 225 225 227 228 229 231 233 235 237 239 241 243 245 248
291 293 294 295 295 295 295 293 289 282 276 269 258 247 240 237 232 225 221 220 219 217 218 219 222 225 226 226 226 226 227 229 231 233 236 238 239 241 243 245 246 248
290 292 293 293 293 293 292 290 287 281 275 268 260 249 241 237 234 229 223 220 220 219 219 219 220 223 225 226 226 227 228 230 231 233 236 239 241 242 244 245 246 246
290 291 291 292 291 290 289 287 285 280 274 268 260 252 244 237 235 232 227 223 220 220 221 221 221 221 223 225 226 227 228 230 232 234 236 239 241 242 242 243 243 242
289 290 290 289 289 287 286 284 282 279 274 268 261 254 247 240 234 233 231 227 223 221 222 223 222 221 222 224 226 227 228 230 231 233 235 238 240 242 242 242 243 242
288 288 288 287 286 284 282 280 279 277 274 270 263 255 249 243 237 233 232 230 228 224 222 223 224 223 223 223 225 226 228 229 231 233 235 237 240 242 243 243 244 244
Height
10660 10660 10660 10660 10660 10660 10660 10662 10666 10668 10670 10673 10677 10680 10682 10685 10687 10688 10689 10689 10689 10690 10691 10692 10693 10694 10696 10697 10698 10698 10698 10699 10700 10701 10701 10700 10700 10699 10700 10700 10700 10701
10655 10655 10655 10654 10654 10654 10654 10655 10658 10660 10662 10665 10669 10672 10675 10679 10683 10684 10684 10685 10686 10686 10687 10688 10690 10691 10693 10694 10695 10695 10695 10696 10696 10697 10697 10697 10696 10696 10696 10697 10698 10698
10650 10649 10649 10648 10648 10648 10647 10647 10649 10651 10654 10658 10661 10665 10668 10671 10675 10676 10676 10678 10680 10681 10682 10684 10685 10687 10689 10691 10691 10692 10692 10693 10693 10693 10693 10693 10693 10693 10693 10693 10693 10695
10644 10643 10642 10641 10640 10640 10640 10640 10640 10642 10646 10650 10653 10656 10660 10664 10666 10666 10667 10670 10674 10676 10678 10679 10681 10683 10684 10686 10687 10688 10689 10690 10690 10689 10689 10690 10690 10690 10690 10688 10688 10691
10637 10637 10636 10634 10633 10632 10631 10631 10632 10633 10636 10641 10643 10645 10649 10655 10658 10658 10661 10665 10668 10671 10673 10675 10676 10678 10679 10681 10683 10685 10686 10687 10686 10685 10685 10686 10686 10687 10686 10685 10685 10687
10631 10630 10629 10628 10626 10624 10622 10622 10623 10624 10625 10628 10631 10633 10638 10644 10647 10650 10655 10659 10662 10665 10668 10670 10672 10674 10675 10677 10679 10680 10681 10682 10682 10681 10682 10682 10683 10683 10683 10682 10682 10682
10625 10624 10623 10622 10620 10617 10615 10613 10613 10615 10616 10617 10619 10623 10627 10631 10636 10642 10647 10652 10657 10661 10663 10665 10667 10669 10671 10672 10674 10675 10677 10678 10677 10677 10678 10678 10679 10679 10679 10679 10679 10678
10619 10618 10617 10615 10613 10610 10607 10605 10604 10605 10607 10607 10609 10612 10616 10622 10627 10633 10640 10645 10651 10655 10657 10659 10662 10665 10666 10668 10669 10670 10672 10672 10672 10672 10673 10674 10674 10675 10676 10676 10675 10674
10613 10612 10611 10609 10607 10604 10600 10597 10596 10596 10597 10598 10599 10601 10606 10613 10619 10626 10632 10637 10641 10644 10647 10650 10654 10658 10660 10662 10663 10666 10667 10667 10667 10668 10669 10669 10670 10671 10672 10671 10670 10669
10606 10605 10604 10603 10601 10598 10594 10591 10588 10587 10588 10588 10589 10592 10596 10603 10610 10617 10623 10627 10632 10635 10638 10641 10645 10649 10652 10654 10656 10660 10661 10661 10661 10663 10664 10664 10665 10667 10666 10666 10665 10665
10599 10598 10598 10596 10594 10591 10589 10585 10582 10580 10580 10580 10581 10583 10587 10593 10601 10607 10613 10619 10624 10629 10633 10635 10638 10641 10642 10644 10648 10652 10654 10655 10656 10657 10658 10659 10660 10661 10661 10660 10660 10660
10592 10591 10591 10590 10588 10585 10583 10580 10576 10574 10573 10573 10573 10575 10579 10585 10591 10598 10604 10609 10616 10622 10626 10628 10630 10632 10632 10634 10638 10643 10646 10647 10649 10650 10652 10654 10655 10655 10656 10655 10655 10655
10586 10585 10584 10583 10582 10580 10577 10575 10572 10569 10568 10567 10567 10569 10572 10577 10583 10589 10595 10601 10608 10615 10617 10619 10621 10623 10624 10626 10629 10633 10637 10640 10642 10643 10645 10648 10649 10651 10650 10648 10648 10649
10579 10578 10577 10576 10575 10574 10572 10570 10567 10565 10563 10562 10562 10563 10565 10569 10575 10580 10586 10593 10601 10606 10607 10608 10611 10614 10618 10620 10622 10626 10629 10633 10635 10637 10640 10642 10643 10644 10642 10640 10641 10643
10573 10571 10571 10570 10569 10567 10566 10564 10563 10560 10559 10558 10557 10558 10559 10563 10568 10573 10579 10586 10592 10596 10597 10598 10601 10606 10611 10615 10617 10620 10623 10627 10630 10632 10633 10634 10635 10636 10635 10634 10635 10637
10567 10565 10564 10563 10562 10561 10560 10558 10557 10556 10554 10553 10553 10553 10554 10557 10561 10566 10571 10578 10583 10587 10589 10590 10593 10600 10605 10608 10610 10613 10616 10620 10623 10623 10623 10626 10628 10629 10629 10628 10628 10630
10561 10559 10558 10557 10556 10555 10554 10553 10552 10551 10550 10549 10548 10548 10549 10551 10554 10559 10564 10570 10575 10579 10581 10583 10587 10593 10597 10599 10603 10607 10610 10613 10614 10613 10614 10618 10620 10622 10623 10622 10622 10624
10554 10553 10552 10550 10549 10549 10548 10547 10546 10545 10545 10544 10544 10543 10544 10545 10548 10552 10557 10562 10567 10571 10574 10576 10580 10586 10589 10591 10596 10600 10603 10605 10607 10607 10607 10610 10612 10614 10616 10615 10616 10618
10547 10546 10544 10543 10542 10542 10542 10541 10540 10539 10539 10539 10539 10539 10539 10540 10542 10545 10549 10554 10559 10563 10566 10569 10573 10577 10580 10584 10589 10592 10595 10598 10600 10600 10601 10603 10604 10606 10608 10608 10609 10611
10540 10538 10537 10536 10535 10534 10535 10535 10534 10533 10533 10533 10534 10534 10534 10534 10536 10539 10542 10546 10551 10555 10559 10562 10566 10568 10571 10576 10581 10584 10587 10591 10592 10592 10593 10595 10596 10598 10599 10600 10602 10605
10533 10531 10530 10528 10527 10527 10527 10527 10528 10527 10526 10527 10527 10528 10528 10529 10530 10532 10535 10539 10543 10547 10551 10554 10557 10560 10563 10568 10572 10576 10580 10583 10583 10584 10585 10586 10587 10590 10591 10592 10595 10597
10524 10524 10523 10521 10520 10519 10519 10519 10520 10521 10520 10520 10520 10522 10523 10523 10524 10526 10528 10531 10535 10539 10542 10546 10548 10551 10555 10559 10563 10568 10572 10574 10575 10576 10577 10578 10580 10583 10584 10586 10588 10589
10516 10515 10514 10514 10512 10511 10511 10511 10512 10513 10513 10513 10513 10514 10516 10517 10518 10520 10521 10524 10527 10531 10534 10537 10540 10543 10546 10550 10554 10558 10562 10565 10567 10569 10570 10571 10573 10575 10577 10578 10580 10580
10507 10506 10505 10505 10504 10503 10502 10502 10503 10504 10505 10506 10506 10507 10508 10510 10511 10513 10515 10517 10519 10522 10525 10528 10531 10534 10537 10541 10545 10549 10553 10557 10559 10561 10562 10564 10565 10567 10569 10570 10571 10573
10498 10497 10496 10495 10495 10494 10494 10493 10493 10494 10496 10497 10498 10499 10500 10502 10503 10505 10507 10510 10512 10514 10517 10519 10523 10526 10529 10533 10537 10540 10543 10547 10549 10550 10552 10555 10557 10558 10560 10561 10563 10566
10488 10487 10486 10485 10485 10485 10485 10484 10484 10485 10486 10488 10490 10491 10492 10493 10495 10496 10499 10501 10504 10506 10508 10511 10513 10517 10520 10524 10528 10531 10535 10538 10539 10540 10543 10546 10548 10549 10550 10552 10555 10558